Flag for U.S.A. Weather past 2 weeks in Corvallis, Oregon, U.S.A.

Now
73 °F

Sunny.


Feels Like: 77 °F
Forecast: 53 / 81 °F
Wind: 3 mph from West

Location: Corvallis Municipal

Current Time: May 28, 2015 at 12:22:13 PM

Latest Report: May 28, 2015 at 11:55 AM


Visibility: 10 mi

Pressure: 30.06 "Hg

Humidity: 53%

Dew point: 55 °F

Location of CorvallisLocation

Historic Weather in Corvallis — Graph

°F

Corvallis temperature yesterday

Maximum temperature yesterday: 81 °F (at 3:35 PM)
Minimum temperature yesterday: 50 °F (at 4:35 AM)
Average temperature yesterday: 64 °F

Past Weeks' High & Low Weather Summary

 TemperatureHumidityPressure
High81 °F (May 27, 3:35 PM)94% (May 13, 10:55 PM)30.21 "Hg (May 13, 10:55 PM)
Low46 °F (May 14, 12:35 AM)39% (May 27, 3:35 PM)29.81 "Hg (May 14, 4:35 PM)
Average58 °F73%30.02 "Hg
* Reported May 13 11:15 AM — May 28 11:15 AM, Corvallis, Weather by CustomWeather, © 2015

Note: Actual official high and low records may vary slightly from our data, if they occured in-between our weather recording intervals... More about our weather records

Advertising

Corvallis weather history for previous 24 hours

 ConditionsComfort  
Time TempWeatherWind HumidityBarometerVisibility
11:15 AM
Thu, May 28
72 °FSunny.5 mph57%30.07 "Hg10 mi
10:55 AM70 °FSunny.No wind60%30.07 "Hg10 mi
10:35 AM70 °FSunny.No wind60%30.07 "Hg10 mi
10:15 AM68 °FSunny.3 mph60%30.08 "Hg10 mi
9:55 AM66 °FSunny.5 mph64%30.08 "Hg10 mi
9:35 AM64 °FSunny.3 mph68%30.08 "Hg10 mi
9:15 AM64 °FSunny.No wind68%30.09 "Hg10 mi
8:55 AM63 °FSunny.No wind68%30.09 "Hg10 mi
8:35 AM61 °FSunny.No wind72%30.09 "Hg10 mi
8:15 AM59 °FSunny.3 mph77%30.09 "Hg10 mi
7:55 AM57 °FSunny.5 mph82%30.09 "Hg10 mi
7:35 AM55 °FSunny.7 mph88%30.09 "Hg10 mi
7:15 AM54 °FSunny.7 mph88%30.08 "Hg10 mi
6:55 AM54 °FSunny.7 mph88%30.08 "Hg10 mi
6:35 AM54 °FSunny.6 mph82%30.07 "Hg10 mi
5:55 AM52 °FClear.7 mph88%30.07 "Hg10 mi
5:35 AM52 °FClear.7 mph88%30.05 "Hg10 mi
5:15 AM52 °FClear.6 mph88%30.05 "Hg10 mi
4:55 AM52 °FClear.6 mph88%30.05 "Hg10 mi
4:35 AM52 °FClear.6 mph88%30.04 "Hg10 mi
4:15 AM54 °FClear.5 mph82%30.04 "Hg10 mi
3:55 AM54 °FClear.3 mph82%30.04 "Hg10 mi
3:35 AM54 °FClear.6 mph82%30.04 "Hg10 mi
3:15 AM54 °FClear.6 mph82%30.04 "Hg10 mi
2:55 AM54 °FClear.7 mph88%30.04 "Hg10 mi
2:35 AM54 °FClear.6 mph88%30.04 "Hg10 mi
2:15 AM54 °FClear.8 mph88%30.04 "Hg10 mi
1:55 AM54 °FClear.8 mph88%30.04 "Hg10 mi
1:35 AM54 °FClear.9 mph88%30.04 "Hg10 mi
1:15 AM55 °FClear.8 mph82%30.04 "Hg10 mi
12:55 AM55 °FClear.10 mph82%30.05 "Hg10 mi
12:35 AM57 °FClear.9 mph82%30.04 "Hg10 mi
12:15 AM57 °FClear.12 mph82%30.04 "Hg10 mi
11:55 PM
Wed, May 27
57 °FClear.12 mph82%30.04 "Hg10 mi
11:35 PM57 °FClear.13 mph82%30.03 "Hg10 mi
11:15 PM59 °FClear.12 mph77%30.03 "Hg10 mi
10:55 PM59 °FClear.10 mph77%30.03 "Hg10 mi
10:35 PM61 °FClear.9 mph72%30.03 "Hg10 mi
10:15 PM61 °FClear.10 mph72%30.03 "Hg10 mi
9:55 PM61 °FClear.7 mph72%30.02 "Hg10 mi
9:35 PM63 °FSunny.8 mph68%30.02 "Hg10 mi
9:15 PM63 °FSunny.9 mph68%30.02 "Hg10 mi
8:35 PM64 °FSunny.10 mph60%30.01 "Hg10 mi
8:15 PM68 °FSunny.12 mph53%30.01 "Hg10 mi
7:55 PM70 °FSunny.10 mph46%30.00 "Hg10 mi
7:35 PM72 °FSunny.12 mph47%30.00 "Hg10 mi
7:15 PM72 °FSunny.12 mph47%30.00 "Hg10 mi
6:55 PM73 °FSunny.14 mph47%30.00 "Hg10 mi
6:35 PM75 °FSunny.13 mph47%30.00 "Hg10 mi
6:15 PM77 °FSunny.14 mph44%30.00 "Hg10 mi
5:55 PM77 °FSunny.12 mph44%30.00 "Hg10 mi
5:35 PM79 °FPassing clouds.14 mph45%30.00 "Hg10 mi
5:15 PM79 °FPartly sunny.10 mph45%30.00 "Hg10 mi
4:55 PM79 °FPartly sunny.5 mph42%30.00 "Hg10 mi
4:35 PM81 °FPassing clouds.6 mph39%30.01 "Hg10 mi
4:15 PM81 °FPassing clouds.5 mph39%30.01 "Hg10 mi
3:55 PM81 °FSunny.3 mph39%30.01 "Hg10 mi
3:35 PM81 °FSunny.No wind39%30.02 "Hg10 mi
3:15 PM79 °FSunny.5 mph42%30.02 "Hg10 mi
2:55 PM79 °FSunny.3 mph42%30.03 "Hg10 mi
2:35 PM77 °FSunny.5 mph44%30.03 "Hg10 mi
2:15 PM77 °FSunny.No wind44%30.04 "Hg10 mi
1:55 PM75 °FSunny.6 mph47%30.05 "Hg10 mi
1:35 PM75 °FSunny.5 mph47%30.05 "Hg10 mi
1:15 PM73 °FSunny.6 mph50%30.06 "Hg10 mi
12:55 PM73 °FPassing clouds.3 mph47%30.06 "Hg10 mi
12:35 PM72 °FPassing clouds.3 mph50%30.07 "Hg10 mi
12:15 PM72 °FScattered clouds.5 mph50%30.07 "Hg10 mi
Weather by CustomWeather, © 2015

See weather overviewHow to use our weather pages